CW5917 Weather Reports


Display with metric or nautical units.
time (UTC)temp
F
wind
direction
speed
MPH
gust
MPH
rain 1hr
in
rain 24hr
in
rain mn
in
humidity
%
barometer
mb
20260502193555 57 281 7.0 14.0 0.00 0.00 0.00 35 1017.3
20260502193022 57 298 6.0 16.0 0.00 0.00 0.00 36 1017.3
20260502192518 58 315 9.0 16.0 0.00 0.00 0.00 36 1017.3
20260502192035 58 246 8.0 14.0 0.00 0.00 0.00 35 1017.5
20260502191555 59 309 4.0 16.0 0.00 0.00 0.00 34 1017.5
20260502191031 59 319 12.0 16.0 0.00 0.00 0.00 36 1017.5
20260502190525 59 293 8.0 17.0 0.00 0.00 0.00 37 1017.5
20260502190018 59 219 9.0 17.0 0.00 0.00 0.00 39 1017.6
20260502185524 58 294 9.0 12.0 0.00 0.00 0.00 39 1017.7
20260502185036 56 296 4.0 10.0 0.00 0.00 0.00 37 1017.9
20260502184519 56 318 5.0 15.0 0.00 0.00 0.00 38 1018.0
20260502184030 56 295 7.0 15.0 0.00 0.00 0.00 36 1018.1
20260502183538 56 285 11.0 15.0 0.00 0.00 0.00 35 1018.2
20260502183024 57 288 9.0 15.0 0.00 0.00 0.00 36 1018.2
20260502182521 57 297 6.0 16.0 0.00 0.00 0.00 33 1018.2
20260502182034 58 312 10.0 16.0 0.00 0.00 0.00 35 1018.3
20260502181536 57 259 8.0 15.0 0.00 0.00 0.00 38 1018.2
20260502181029 56 311 7.0 23.0 0.00 0.00 0.00 39 1018.3
20260502180524 56 333 5.0 14.0 0.00 0.00 0.00 38 1018.4
20260502164019 55 284 6.0 13.0 0.00 0.00 0.00 41 1019.1
20260502163536 55 302 6.0 16.0 0.00 0.00 0.00 42 1019.0
20260502163033 55 283 9.0 16.0 0.00 0.00 0.00 41 1019.1
20260502162519 54 313 9.0 14.0 0.00 0.00 0.00 44 1019.1
20260502162054 54 312 8.0 14.0 0.00 0.00 0.00 42 1019.2
20260502161520 54 281 3.0 17.0 0.00 0.00 0.00 45 1019.2
20260502161034 54 302 10.0 17.0 0.00 0.00 0.00 43 1019.3
20260502160538 54 300 8.0 16.0 0.00 0.00 0.00 45 1019.4
20260502152030 53 250 6.0 10.0 0.00 0.00 0.00 49 1019.7
20260502151034 53 229 7.0 13.0 0.00 0.00 0.00 49 1019.7
20260502150528 53 294 6.0 13.0 0.00 0.00 0.00 49 1019.7
20260502130524 41 298 5.0 8.0 0.00 0.00 0.00 89 1020.2
20260502123533 37 286 5.0 8.0 0.00 0.00 0.00 92 1020.0
20260502123023 37 274 5.0 8.0 0.00 0.00 0.00 92 1020.1
20260502122536 36 262 4.0 8.0 0.00 0.00 0.00 92 1020.0
20260502122037 36 309 3.0 7.0 0.00 0.00 0.00 93 1019.9
20260502121536 35 282 3.0 7.0 0.00 0.00 0.00 92 1020.0
20260502121034 34 271 3.0 6.0 0.00 0.00 0.00 92 1019.9
20260502120519 34 231 2.0 5.0 0.00 0.00 0.00 92 1019.8
20260502115521 33 231 4.0 5.0 0.00 0.01 0.00 92 1019.8
20260502115033 33 231 3.0 5.0 0.00 0.01 0.00 91 1019.8
20260502114532 33 231 3.0 4.0 0.00 0.01 0.00 91 1019.8
20260502114029 33 231 3.0 5.0 0.00 0.01 0.00 91 1019.7
20260502113524 33 231 3.0 5.0 0.00 0.01 0.00 91 1019.7
20260502113048 32 231 3.0 7.0 0.00 0.01 0.00 91 1019.7
20260502112536 32 240 5.0 7.0 0.00 0.01 0.00 91 1019.6
20260502112029 32 231 4.0 6.0 0.00 0.01 0.00 91 1019.5
20260502111519 32 231 4.0 6.0 0.00 0.01 0.00 91 1019.5
20260502111056 32 231 4.0 7.0 0.00 0.01 0.00 91 1019.5
20260502110522 32 223 4.0 8.0 0.00 0.01 0.00 91 1019.6
20260502110034 32 241 4.0 8.0 0.00 0.01 0.00 91 1019.6
20260502105539 33 233 5.0 9.0 0.00 0.01 0.00 91 1019.6
20260502105033 33 233 6.0 9.0 0.00 0.01 0.00 91 1019.5
20260502104552 33 232 6.0 9.0 0.00 0.01 0.00 91 1019.5
20260502104023 33 234 6.0 9.0 0.00 0.01 0.00 91 1019.5
20260502103554 33 229 5.0 10.0 0.00 0.01 0.00 91 1019.4
20260502103020 33 237 6.0 10.0 0.00 0.01 0.00 90 1019.4
20260502102536 33 236 6.0 9.0 0.00 0.01 0.00 90 1019.4
20260502102054 33 236 5.0 9.0 0.00 0.01 0.00 90 1019.5
20260502101523 33 248 6.0 9.0 0.00 0.01 0.00 90 1019.6
20260502101034 33 241 5.0 8.0 0.00 0.01 0.00 90 1019.6
20260502100529 33 229 5.0 7.0 0.00 0.01 0.00 90 1019.4
20260502091030 33 229 4.0 7.0 0.00 0.01 0.00 90 1019.3
20260502090525 33 236 4.0 7.0 0.00 0.01 0.00 89 1019.3
20260502071033 34 215 2.0 4.0 0.00 0.01 0.00 88 1019.3
20260502070518 34 215 2.0 4.0 0.00 0.01 0.00 88 1019.5
20260502070035 34 215 2.0 5.0 0.00 0.01 0.00 88 1019.6
20260502065529 34 215 3.0 4.0 0.00 0.01 0.00 88 1019.5
20260502065040 34 215 3.0 5.0 0.00 0.01 0.00 87 1019.6
20260502064545 34 215 3.0 5.0 0.00 0.01 0.00 87 1019.6
20260502064040 34 215 3.0 5.0 0.00 0.01 0.00 87 1019.6
20260502063556 34 221 3.0 5.0 0.00 0.01 0.00 87 1019.6
20260502063024 34 216 3.0 5.0 0.00 0.01 0.00 87 1019.6
20260502062520 34 219 4.0 5.0 0.00 0.01 0.00 86 1019.6
20260502062021 33 216 3.0 5.0 0.00 0.01 0.00 86 1019.7
20260502061536 33 217 3.0 7.0 0.00 0.01 0.00 85 1019.7
20260502061032 33 217 4.0 7.0 0.00 0.01 0.00 84 1019.8
20260502060525 32 215 5.0 7.0 0.00 0.01 0.00 83 1019.8
20260502060025 32 207 3.0 4.0 0.00 0.01 0.00 81 1019.8
20260502055520 32 215 2.0 4.0 0.00 0.01 0.00 80 1019.8
20260502055035 32 106 0.0 1.0 0.00 0.01 0.00 80 1019.9
20260502054523 32 106 0.0 0.0 0.00 0.01 0.00 80 1019.8
20260502054021 32 106 0.0 0.0 0.00 0.01 0.00 80 1019.8
20260502053535 32 106 0.0 2.0 0.00 0.01 0.00 80 1019.9
20260502053025 33 106 0.0 2.0 0.00 0.01 0.00 80 1019.8
20260502052555 33 106 0.0 2.0 0.00 0.01 0.00 80 1019.8
20260502052031 33 106 1.0 2.0 0.00 0.01 0.00 79 1019.8
20260502051531 33 106 0.0 0.0 0.00 0.01 0.00 77 1019.8
20260502051030 33 106 0.0 1.0 0.00 0.01 0.00 75 1019.8
20260502050523 33 106 0.0 1.0 0.00 0.01 0.00 74 1019.8
20260502050034 33 106 0.0 3.0 0.00 0.01 0.00 74 1019.8
20260502045518 33 106 1.0 3.0 0.00 0.01 0.01 73 1019.8
20260502045037 34 106 0.0 0.0 0.00 0.01 0.01 73 1019.8
20260502044531 34 106 0.0 0.0 0.00 0.01 0.01 72 1019.7
20260502044024 34 106 0.0 0.0 0.00 0.01 0.01 72 1019.8
20260502043517 34 106 0.0 0.0 0.00 0.01 0.01 72 1019.7
20260502043022 34 106 0.0 0.0 0.00 0.01 0.01 72 1019.6
20260502042535 35 106 0.0 0.0 0.00 0.01 0.01 72 1019.6
20260502042030 35 106 0.0 0.0 0.00 0.01 0.01 72 1019.7
20260502041532 35 106 0.0 0.0 0.00 0.01 0.01 72 1019.7
20260502041025 35 106 0.0 0.0 0.00 0.01 0.01 69 1019.6
20260502040518 36 106 0.0 0.0 0.00 0.01 0.01 68 1019.5
20260502040034 36 106 0.0 0.0 0.00 0.01 0.01 67 1019.4
20260502035519 36 106 0.0 0.0 0.00 0.01 0.01 67 1019.5
20260502035033 36 106 0.0 0.0 0.00 0.01 0.01 67 1019.4
20260502034545 37 106 0.0 0.0 0.00 0.01 0.01 66 1019.4
20260502034023 37 106 0.0 1.0 0.00 0.01 0.01 66 1019.4
20260502033517 37 106 0.0 1.0 0.00 0.01 0.01 66 1019.4
20260502033033 37 106 0.0 2.0 0.00 0.01 0.01 66 1019.4
20260502032520 37 106 1.0 2.0 0.00 0.01 0.01 65 1019.4
20260502032034 38 106 0.0 0.0 0.00 0.01 0.01 65 1019.4
20260502031522 38 106 0.0 1.0 0.00 0.01 0.01 65 1019.4
20260502031055 38 106 0.0 1.0 0.00 0.01 0.01 64 1019.3
20260502030525 38 106 0.0 2.0 0.00 0.01 0.01 63 1019.4
20260502030031 38 106 0.0 2.0 0.00 0.01 0.01 63 1019.4
20260502025524 39 106 1.0 2.0 0.00 0.02 0.01 63 1019.3
20260502025021 39 106 0.0 2.0 0.00 0.02 0.01 63 1019.3
20260502024518 39 106 1.0 2.0 0.00 0.02 0.01 63 1019.3
20260502024050 39 106 0.0 2.0 0.00 0.02 0.01 63 1019.3
20260502023544 39 106 0.0 4.0 0.00 0.02 0.01 62 1019.4
20260502023022 40 106 0.0 4.0 0.00 0.02 0.01 62 1019.4
20260502022555 40 106 1.0 4.0 0.00 0.02 0.01 62 1019.3
20260502022040 40 49 0.0 4.0 0.00 0.02 0.01 61 1019.3
20260502021531 40 49 0.0 3.0 0.00 0.02 0.01 61 1019.3
20260502021036 41 49 1.0 3.0 0.00 0.02 0.01 60 1019.4
20260502020529 41 49 2.0 3.0 0.00 0.02 0.01 60 1019.3
20260502020020 41 49 2.0 5.0 0.00 0.06 0.01 60 1019.2
20260502015542 42 49 2.0 5.0 0.00 0.06 0.01 59 1019.1
20260502015034 42 49 2.0 3.0 0.00 0.06 0.01 58 1019.1
20260502014534 42 49 1.0 3.0 0.00 0.06 0.01 59 1018.9
20260502014027 43 49 1.0 3.0 0.00 0.06 0.01 59 1018.9
20260502013520 43 49 1.0 3.0 0.00 0.06 0.01 58 1018.8
20260502013028 43 49 1.0 4.0 0.00 0.06 0.01 58 1018.8
20260502012534 43 52 2.0 4.0 0.00 0.06 0.01 58 1018.6
20260502012029 43 36 2.0 6.0 0.00 0.06 0.01 58 1018.6
20260502011520 44 57 3.0 8.0 0.00 0.06 0.01 57 1018.5
20260502011034 44 58 3.0 8.0 0.00 0.06 0.01 57 1018.5
20260502010528 44 51 2.0 7.0 0.00 0.06 0.01 57 1018.4
20260502005520 45 42 3.0 6.0 0.00 0.06 0.01 56 1018.2
20260502005035 45 59 2.0 5.0 0.00 0.06 0.01 55 1018.2
20260502004521 45 62 2.0 7.0 0.00 0.06 0.01 56 1018.2
20260502004017 45 44 4.0 6.0 0.00 0.06 0.01 55 1018.1
20260502003525 45 65 3.0 10.0 0.00 0.06 0.01 55 1018.1
20260502003028 46 50 4.0 10.0 0.00 0.06 0.01 54 1018.1
20260502002544 46 74 3.0 6.0 0.00 0.06 0.01 54 1018.0
20260502002019 46 94 3.0 6.0 0.00 0.06 0.01 54 1018.0
20260502001554 46 77 2.0 6.0 0.00 0.06 0.01 53 1017.9
20260502001047 46 30 3.0 9.0 0.00 0.06 0.01 52 1017.8
20260502000521 46 38 4.0 9.0 0.00 0.06 0.01 52 1017.8
20260502000037 47 57 3.0 9.0 0.00 0.06 0.01 52 1017.9
20260501235519 47 34 3.0 9.0 0.00 0.06 0.01 51 1017.9
20260501235018 47 50 3.0 6.0 0.00 0.06 0.01 51 1017.9
20260501234537 47 47 4.0 7.0 0.00 0.06 0.01 51 1017.7
20260501234031 47 75 5.0 7.0 0.00 0.06 0.01 51 1017.7
20260501233526 47 111 4.0 7.0 0.00 0.06 0.01 51 1017.7
20260501233024 47 29 4.0 9.0 0.00 0.06 0.01 52 1017.6
20260501232517 47 59 5.0 10.0 0.00 0.06 0.01 53 1017.7
20260501232037 47 81 7.0 10.0 0.00 0.06 0.01 54 1017.6
20260501231534 47 57 4.0 11.0 0.00 0.06 0.01 54 1017.6
20260501231031 47 80 6.0 11.0 0.00 0.06 0.01 54 1017.6
20260501230524 47 55 3.0 9.0 0.00 0.06 0.01 53 1017.6
20260501230026 47 42 5.0 10.0 0.00 0.06 0.01 53 1017.5
20260501225518 47 78 4.0 10.0 0.00 0.06 0.01 53 1017.6
20260501225036 47 52 4.0 11.0 0.00 0.06 0.01 53 1017.7
20260501224535 48 63 7.0 11.0 0.00 0.06 0.01 54 1017.6
20260501224020 48 45 5.0 12.0 0.00 0.06 0.01 55 1017.7
20260501223536 48 41 7.0 12.0 0.00 0.06 0.01 55 1017.7
20260501223025 48 15 6.0 11.0 0.00 0.06 0.01 54 1017.7
20260501222517 48 46 5.0 16.0 0.00 0.06 0.01 53 1017.7
20260501222035 49 57 8.0 16.0 0.00 0.06 0.01 51 1017.7
20260501221544 49 32 6.0 10.0 0.00 0.06 0.01 49 1017.5
20260501221021 49 30 4.0 10.0 0.00 0.06 0.01 47 1017.5
20260501220534 50 66 5.0 11.0 0.00 0.06 0.01 46 1017.4
20260501220019 50 11 4.0 11.0 0.00 0.06 0.01 45 1017.4
20260501215533 50 12 7.0 11.0 0.00 0.06 0.01 46 1017.3
20260501215036 49 329 4.0 10.0 0.00 0.06 0.01 48 1017.3
20260501214543 49 320 7.0 10.0 0.00 0.06 0.01 46 1017.4
20260501214038 49 321 5.0 9.0 0.00 0.06 0.01 47 1017.4
20260501213518 49 327 3.0 5.0 0.00 0.06 0.01 46 1017.4
20260501213048 49 312 3.0 11.0 0.00 0.06 0.01 46 1017.2
20260501212524 49 325 6.0 11.0 0.00 0.06 0.01 48 1017.3
20260501212022 49 27 2.0 8.0 0.00 0.06 0.01 50 1017.3
20260501211532 49 331 4.0 13.0 0.00 0.06 0.01 48 1017.3
20260501211020 49 329 8.0 13.0 0.00 0.06 0.01 48 1017.2
20260501210559 50 44 3.0 10.0 0.00 0.06 0.01 47 1017.2
20260501210031 50 322 4.0 10.0 0.00 0.06 0.01 46 1017.2
20260501205523 50 332 3.0 10.0 0.00 0.06 0.01 48 1017.3
20260501205035 50 328 5.0 11.0 0.00 0.06 0.01 48 1017.2
20260501204517 49 340 5.0 11.0 0.00 0.06 0.01 47 1017.3
20260501204032 49 312 3.0 12.0 0.00 0.06 0.01 47 1017.3
20260501203517 49 348 6.0 13.0 0.00 0.06 0.01 47 1017.3
20260501203028 49 301 8.0 13.0 0.00 0.06 0.01 48 1017.3
20260501202525 49 5 5.0 12.0 0.00 0.06 0.01 53 1017.4
20260501202023 48 281 7.0 12.0 0.00 0.06 0.01 51 1017.5
20260501201526 48 329 4.0 11.0 0.00 0.06 0.01 51 1017.4
20260501201020 48 319 5.0 9.0 0.00 0.06 0.01 50 1017.4
20260501200534 49 314 5.0 11.0 0.00 0.06 0.01 49 1017.5
20260501200020 48 319 7.0 12.0 0.00 0.06 0.01 49 1017.6
20260501195536 48 5 6.0 12.0 0.00 0.06 0.01 50 1017.5
20260501195024 48 351 5.0 10.0 0.00 0.06 0.01 51 1017.5
20260501194518 48 12 5.0 11.0 0.00 0.06 0.01 50 1017.4
20260501194034 48 320 6.0 11.0 0.00 0.06 0.01 51 1017.4